CAPE
3712 3716 3688 3462 3632 3620 3636 3696 3608 3556 3538 3560 3544 3383 3208 2966 3158 3026 3386 3547 3601 3351 3230 3431 3830 3998 3598 3401 3511 4038 4312 4084 4124 4316 4128 4044 3883 3834 3859 4184 3922 3388 3061 2576 1971 2066 2058 1687 1458 1623 1439 1124 1113 1218 1050 1523 1311 1494 1451 1502 1354 1362 1365 1298 1212 1124 1408 1330 1153 808 459 713 615 970 1093 781 1411 505 772 685 1730 987 782 794 553
3819 3622 3772 3512 3322 3575 3424 3433 3563 3358 3301 3367 3373 3421 3609 3539 3334 3404 3378 3622 3727 3506 3345 3127 3596 4151 4171 4048 3919 4170 4346 4358 4159 4265 4150 4071 3883 3708 3664 4078 3953 3676 3219 2934 2369 2042 2197 2048 1762 1629 1560 1323 1203 1032 1048 841 1087 1015 1179 1067 1021 1179 1252 1187 1126 1212 1118 1202 1322 968 1033 866 921 585 1011 630 1456 914 662 688 1411 744 783 782 594
3798 3956 3852 3753 3517 3503 3591 3707 3564 3369 3039 3097 3055 2924 3373 3666 3580 3532 3292 3242 3512 3540 3747 3321 3405 3922 4174 4388 4500 4276 4437 4297 4047 4213 4269 4157 3892 3365 3196 3820 3873 3699 3450 3126 2792 2315 2202 2230 1990 1634 1533 1440 1355 1175 920 1036 739 837 956 737 888 946 1243 1242 1231 1050 1013 1204 1391 1234 794 980 936 933 586 874 1027 1474 939 692 454 624 812 841 544
3700 3949 3928 3708 3575 3536 3578 3714 3428 3484 3261 3462 3150 2959 2816 3129 3574 3419 3293 3040 3310 3431 3611 3743 3956 3990 4202 4288 4535 4269 4358 4298 4051 3982 4266 4273 4032 3672 3358 3487 3682 3546 3460 3218 2941 2601 2246 2316 2030 1630 1454 1562 1510 1390 1289 1187 1219 1228 1049 911 916 974 1180 1220 1302 1298 1170 868 1346 1051 1119 731 906 1215 792 942 611 940 1242 1116 671 365 312 530 428
3855 3985 3753 3507 3399 3471 3574 3646 3740 3524 3418 3161 3149 2928 2603 3164 3425 3348 3002 2845 3095 3591 3607 3948 4365 4351 4118 4271 4683 4624 4304 4414 4191 3891 4076 4255 4107 3809 3669 3553 3596 3545 3360 3199 2959 2779 2530 2287 2193 1918 1630 1606 1716 1492 1326 1362 1144 1356 1356 1235 1105 1190 1238 1524 1241 1244 1386 1302 1196 1279 1573 1570 1210 960 1023 1054 936 793 899 866 1055 764 808 616 321
3913 4066 3721 3509 3538 3555 3752 3366 3138 3514 3572 2862 2864 2974 2815 2786 3363 3672 3603 3113 3154 3276 3905 3902 4260 4658 4373 4230 4481 4775 4566 4431 4360 4126 3902 4123 4159 3933 3728 3576 3471 3600 3400 3188 3141 2958 2784 2578 2401 2225 1929 1657 1697 1566 1378 1283 1274 1110 1297 1374 1199 1160 1230 1462 1739 1258 1082 1240 1295 1391 1468 1481 1408 1429 941 747 1041 679 748 894 846 905 1115 805 323
4209 3856 3992 3616 3806 3975 3755 3499 3593 3737 3688 3270 3133 2917 2507 2613 3022 3320 3444 3329 3112 2730 3571 3978 3938 4577 4755 4466 4346 4544 4615 4440 4411 4412 4245 4195 4303 4234 3916 3716 3406 3422 3513 3260 3140 3052 2916 2838 2669 2529 2313 1930 1680 1635 1510 1331 1278 1188 1211 1353 1288 1168 1158 1208 1550 1686 1285 1082 1160 1046 1252 1390 1391 1512 1392 1124 646 867 836 704 745 784 896 986 918
4331 4341 4462 4229 4076 4091 4044 3806 3585 3546 3484 3620 3388 3018 2852 2885 3018 3445 3979 3813 3106 3124 2882 3801 4370 4357 4791 4764 4576 4474 4607 4561 4512 4597 4572 4478 4432 4346 4136 3912 3526 3430 3443 3483 3261 3043 2950 2873 2730 2729 2599 2357 1854 1766 1700 1479 1290 1282 1272 1310 1373 1255 1160 1178 1197 1270 1563 1471 1297 1166 791 1041 1397 1165 1595 1158 1078 848 941 967 727 780 822 989 877
4414 4393 4667 4687 4490 4308 4267 4272 4020 3642 3636 3834 3523 3266 3226 3258 3335 3427 3640 3801 3545 3332 3050 2719 3816 4289 4477 4906 4831 4583 4500 4522 4484 4616 4692 4558 4407 4355 4235 3971 3738 3504 3535 3555 3613 3427 3251 2993 2851 2838 2848 2662 2113 1798 1762 1586 1424 1270 1392 1415 1407 1308 1245 1170 1225 1123 1165 1343 1515 1439 1227 726 1007 1384 1119 1265 875 870 944 767 814 1101 1119 1098 1243
4416 4300 4687 4928 4840 4685 4568 4495 4322 4122 3909 3998 3806 3559 3505 3618 3539 3492 3340 3566 3804 3928 3724 3274 2990 4165 4353 4877 5165 4866 4532 4450 4199 4216 4293 4422 4326 4146 4183 4110 3906 3663 3664 3613 3582 3588 3447 3200 3026 2805 2739 2672 2419 1951 1742 1628 1425 1268 1416 1489 1410 1390 1331 1258 1300 1254 1180 1218 1288 1445 1267 1100 753 1055 1209 1150 1222 1135 1175 1223 778 808 1143 1156 1291
4598 4366 4613 5110 5086 4976 4864 4841 4726 4435 4279 4215 4338 3998 3750 3784 3795 3634 3402 3349 3629 4301 4218 3931 3124 3138 4236 4568 5033 4985 4714 4516 4164 4108 4074 4036 4191 4122 4083 4254 4150 3896 3683 3722 3748 3709 3528 3387 3374 3024 2748 2672 2619 2332 1855 1723 1574 1289 1273 1430 1420 1475 1473 1370 1289 1357 1324 1277 1272 1276 1253 1099 933 770 979 1201 1151 1192 990 1188 1134 1010 843 758 674
4711 4699 4773 5289 5287 5201 5122 5112 5031 4818 4548 4442 4535 4473 4112 3829 3829 3863 3646 3491 3625 4123 4421 4287 3933 3302 3940 4445 4620 4960 4808 4387 4380 4331 4142 4073 3934 3996 4057 4232 4260 4032 3802 3833 3950 3794 3688 3628 3437 3217 2927 2677 2686 2580 2261 1825 1682 1563 1335 1362 1413 1449 1449 1486 1352 1376 1440 1359 1301 1249 1200 1248 1126 877 890 907 1000 1056 1146 1102 1152 1051 1027 996 866
5028 4963 4936 5496 5505 5472 5491 5413 5299 5131 4886 4603 4548 4726 4628 4265 4017 3989 3876 3764 3715 3961 4511 4481 4332 3966 3693 4503 4715 4872 5038 4713 4633 4496 4264 4150 4033 3866 4056 4017 4049 4026 3781 3620 3667 3731 3586 3526 3408 3230 3099 2781 2654 2592 2493 2221 1847 1754 1636 1430 1448 1460 1487 1503 1434 1446 1460 1454 1290 1297 1296 1314 1294 1161 953 911 1036 1024 1054 974 937 971 1073 1094 1085
5167 5068 5035 5442 5688 5690 5801 5790 5592 5315 5220 5064 4852 4840 4905 4779 4458 4245 4199 4204 4100 4108 4275 4608 4493 4413 4144 4269 4640 4739 4848 4792 4676 4614 4386 4100 3972 3746 4047 4072 3891 3884 3898 3661 3396 3478 3642 3466 3331 3240 3105 3004 2727 2709 2471 2385 2130 1861 1761 1627 1752 1738 1529 1513 1547 1526 1595 1550 1479 1361 1420 1426 1338 1295 1268 981 1250 1161 1047 904 927 885 964 985 1174
4656 5435 5104 5326 5771 5808 6021 6195 6067 5729 5604 5462 5232 5029 5083 5102 5032 4735 4458 4450 4346 4405 4381 4520 4774 4638 4535 4392 4492 4878 4567 4540 4652 4613 4506 4269 3948 3794 3696 4077 4076 4034 4050 4007 3790 3481 3533 3679 3483 3182 3118 3221 3082 2842 2789 2456 2280 2116 1886 1698 1756 2076 1835 1644 1559 1569 1575 1745 1790 1576 1567 1558 1439 1530 1704 1462 1117 1416 1224 1028 997 937 1181 1348 1284
4428 5599 5302 5244 5601 5883 6118 6365 6385 6149 5866 5689 5492 5336 5348 5441 5326 4974 4364 4130 4321 4647 4763 4498 4587 4813 4859 4670 4239 4304 4296 4059 4475 4586 4562 4381 4146 3877 3571 3860 3986 4146 4227 4150 4099 3878 3617 3638 3666 3442 3164 3170 3231 2845 2752 2756 2500 2191 2060 1857 1707 1879 2100 1945 1740 1624 1657 1718 1812 1959 1757 1694 1501 1659 1606 1674 1505 1473 1481 1363 1348 1299 1235 1153 914
4506 5072 5416 5240 5368 5813 6097 6426 6416 6290 6146 5827 5570 5386 5460 5681 5639 5306 4688 4248 4261 4542 4497 4437 4454 4579 4673 4766 4629 4294 4122 3808 3811 4252 4480 4500 4328 4062 3719 3652 3818 3907 4115 4263 4235 4108 3950 3800 3704 3663 3521 3335 3207 3089 2791 2709 2809 2563 2166 1984 1861 1912 1870 1913 1875 1807 1706 1640 1593 1622 1792 1799 1574 1333 1291 1169 1340 1175 831 810 758 917 974 987 814
4629 4836 5416 5321 5244 5712 6172 6548 6411 6234 6223 6132 5780 5603 5541 5494 5487 5424 5005 4475 4133 4193 4414 4451 4503 4538 4505 4632 4642 4663 4614 4272 3670 3610 4023 4400 4420 4295 4009 3681 3833 3814 3768 3987 4322 4367 4233 3832 3716 3778 3734 3618 3219 3174 2983 2742 2877 2831 2522 2245 2096 2004 1887 1817 1881 1757 1785 1689 1576 1510 1496 1468 1486 1406 1163 917 878 892 940 879 771 586 788 714 649
4646 4609 5192 5428 5334 5453 6058 6453 6462 6226 6273 6190 6050 5838 5640 5604 5640 5766 5129 4718 4242 4430 4527 4639 4764 4776 4415 4310 4429 4341 4618 4506 4164 3802 3596 3894 4247 4339 4206 3940 3799 3915 3849 3813 3959 4351 4584 4256 3910 3718 3803 3750 3488 3242 3081 2854 2852 2943 2836 2515 2284 2080 1979 1878 1911 1710 1606 1608 1541 1442 1320 1254 1208 1194 1176 1017 906 1062 1062 1043 935 760 548 535 489
4803 4711 4961 5383 5311 5538 5822 6265 6424 6244 6314 6367 6000 5977 5842 5528 5622 5553 5310 4866 4696 4444 4323 4515 4826 4899 4554 4649 4178 4384 4575 4767 4208 4121 3950 3788 3806 4103 4138 4052 3846 3980 4020 3938 3926 3945 4118 4458 4211 4030 3742 3630 3627 3388 3123 2935 2673 2985 2993 2733 2449 2243 2068 1949 1870 1851 1562 1462 1375 1295 1210 1063 904 862 904 968 1020 1043 1072 1123 1065 825 573 423 283
5140 4975 4918 4897 5371 5671 5727 6183 6145 5982 6155 6217 6044 5716 5478 5370 5296 5331 5100 4887 4982 4947 4573 4318 4183 4685 4623 4583 4407 4514 4416 4806 4601 4358 4272 4150 3967 3786 3867 4036 4117 4066 4084 3913 3916 3869 3856 3869 4046 4022 3985 3834 3648 3591 3342 3078 2826 2766 3024 2896 2594 2329 2132 1995 1844 1748 1555 1429 1326 1241 1185 1124 1063 985 988 1091 1137 1133 1165 1143 1006 707 480 397 172
5589 5428 5370 5129 5435 5561 5451 5833 5930 5655 5808 6110 6190 5958 5706 5541 5342 5392 5018 5291 5411 5426 5165 4787 4597 4473 4545 4663 4779 4767 4428 4018 4990 4395 4337 4285 4197 4105 4015 3846 4082 4251 4162 4122 4080 3969 3854 3901 4042 3946 3849 3885 3812 3699 3550 3369 3118 2848 2778 2696 2622 2427 2106 2030 1992 1699 1651 1429 1329 1241 1196 1116 1065 1013 1011 1110 1202 1217 1244 1173 958 643 417 324 234
5818 5748 5742 5473 5396 5528 5751 5831 5598 5274 5590 6011 6212 6108 5899 5639 5480 5469 5478 5505 5703 5576 5558 5421 5151 4977 5086 5236 5269 5431 5588 5663 4077 4012 4017 4154 4088 4054 4079 4076 3983 3827 4204 4179 4148 4036 3996 3919 3869 3810 3892 3874 3813 3763 3666 3477 3285 3097 2891 2676 2657 2534 2267 1990 1949 1702 1733 1450 1317 1207 1108 1044 1005 1017 1102 1184 1241 1236 1216 1148 892 511 464 368 267
6306 5817 5645 5676 5610 5570 5728 5640 5756 5460 5718 6009 6093 6069 6010 5682 5741 5849 5789 5734 5745 5698 5688 5678 5422 4981 4920 5069 5126 5380 7017 5643 5648 4489 4209 4030 3879 3786 3792 3751 3678 3806 3784 4084 4115 4102 4053 3994 3872 3756 3772 3846 3878 3798 3664 3569 3453 3244 3058 2933 2746 2542 2389 2098 1873 1785 1650 1473 1380 1238 1124 1041 1086 1130 1146 1111 1103 1182 1136 838 699 390 322 313 534
6134 5922 5469 5653 5780 5484 5685 5635 5832 5739 5928 6070 6027 6002 6005 5806 5938 6040 5953 5773 5555 5530 5903 5584 5636 5360 5247 5179 4998 5396 5297 6115 5582 4328 4034 3869 3826 3801 3760 3732 3704 3666 3690 3756 3772 3788 3825 3715 3586 3587 3632 3627 3648 3654 3624 3514 3384 3340 3053 2956 2897 2735 2342 2155 1896 1694 1607 1483 1367 1264 1151 1064 1050 1080 1073 993 1036 1109 1114 944 771 407 250 382 338
5425 5636 5452 5453 5482 5244 5466 5069 5933 5817 5829 5714 5777 5832 5660 5684 5695 5981 5779 5430 5365 5480 5538 4983 4950 5013 5270 4993 5114 5028 5366 5137 5204 5132 4104 4012 3894 3831 3713 3589 3564 3544 3549 3574 3613 3609 3562 3474 3381 3361 3402 3497 3507 3506 3522 3513 3449 3270 3030 2909 2775 2686 2420 2106 1975 1739 1595 1488 1342 1227 1164 1085 1050 1030 1005 977 1019 1112 1076 969 787 322 191 156 98
6010 5945 6028 5744 5473 5238 4935 4352 4707 4940 5339 4640 5073 5402 5255 5266 5224 5429 5205 4803 4776 4928 4718 4466 4351 4294 4557 5183 5059 5325 4906 5252 5473 3852 4129 3926 3843 3778 3708 3685 3629 3581 3528 3492 3422 3425 3457 3374 3266 3151 3158 3146 3116 3114 3262 3351 3338 3283 3150 3062 2903 2721 2517 2138 1914 1755 1600 1481 1335 1188 1085 1046 998 949 938 965 1022 1028 1009 907 744 314 195 29 0
5365 5523 5526 5356 5298 5318 5261 4770 4813 4037 4517 4154 4066 4394 4549 4243 4703 5406 4788 4724 4601 4633 4416 4246 4251 4181 4353 4345 5212 4842 4890 4127 3908 3724 3657 3544 3524 3525 3565 3588 3592 3614 3607 3574 3588 3596 3579 3520 3406 3404 3346 3330 3319 3283 3246 3114 3075 3038 3054 3014 2947 2835 2659 2494 2365 2001 1552 1469 1336 1193 1078 994 954 931 893 855 918 880 922 848 671 248 216 0 0
5716 5459 5103 5417 5608 5636 5289 5459 4803 4474 3816 3667 3546 3713 4287 4542 3671 4086 4197 4188 4400 4652 4851 4399 4613 4755 4394 4337 4320 4229 4062 4012 3952 3800 3776 3736 3712 3683 3584 3518 3511 3559 3566 3551 3562 3545 3470 3439 3406 3342 3335 3373 3324 3354 3394 3431 3400 3200 3011 2790 2848 2743 2639 2533 2464 2343 1821 1388 1232 1118 1037 1013 954 889 821 802 813 806 784 801 562 237 32 0 0
5328 5432 5810 5894 5840 6016 5685 5484 5604 4492 3769 3730 3706 3948 4221 4053 3809 3795 3966 3850 3956 4222 4331 4310 4209 4204 4072 3874 3736 3771 3814 3774 3712 3681 3629 3546 3532 3495 3451 3465 3451 3360 3302 3273 3196 3125 3050 3050 3154 3213 3234 3276 3316 3297 3328 3322 3324 3287 3361 3352 3267 3029 2594 2573 2427 2314 2134 1766 1457 1283 1137 981 975 802 767 779 755 745 720 729 556 252 47 0 0
4397 4338 4536 4521 4526 4954 4799 4723 5278 4856 3710 3562 3680 3876 3887 3987 3871 3705 3634 3560 3576 3655 3667 3687 3660 3645 3624 3637 3596 3499 3413 3310 3278 3224 3036 2925 2861 2867 2878 2783 2701 2630 2608 2411 2297 2150 1934 1846 1840 1891 1982 2138 2454 2637 2941 3014 3024 3087 3133 3170 3288 2754 2396 2432 2141 1881 1618 1668 1275 944 843 797 752 669 706 678 707 652 696 662 444 251 13 0 0
3504 3767 4061 4259 4261 4176 3929 4122 3907 3907 4028 3574 3377 3250 3566 3736 3559 3478 3416 3432 3419 3396 3395 3394 3384 3346 3348 3273 3180 3089 2961 2865 2734 2676 2625 2362 1898 1258 455 223 0 0 0 0 0 0 0 6 140 510 872 1166 1307 1352 1364 1366 1523 1842 2180 2526 2890 2905 2424 2321 2154 2058 1860 1552 1280 1033 1025 964 824 632 582 616 682 671 755 660 410 189 0 0 0
3057 3018 3180 3240 3665 3619 3583 3592 3542 3762 3552 3413 3406 3278 3192 3108 3169 3215 3090 3122 3074 3027 2929 2846 2810 2818 2790 2684 2520 2204 1793 1219 596 0 0 0 0 0 0 0 0 0 0 0 0 0 0 0 0 2 196 563 858 1086 1104 1009 991 1117 1321 1565 1904 2375 2503 2308 1929 1978 2012 1641 1211 888 811 650 581 654 445 292 269 330 732 293 99 51 2 0 0
2552 2688 2649 2618 2801 2682 2719 3360 3193 3434 3425 2878 2029 1738 1188 1028 1306 1501 1773 1665 1207 331 157 0 0 0 0 0 0 0 0 0 0 0 0 0 0 0 0 0 0 0 0 0 0 0 0 0 0 0 0 4 178 600 814 853 864 869 897 1043 1236 1458 1729 2067 1959 1799 1768 1556 1190 918 714 649 546 582 556 518 417 376 48 0 0 0 0 0 0
2049 1809 1701 2024 2225 2324 2209 2255 2038 2339 2692 1965 1065 829 1234 1392 930 1049 1358 1278 1597 2342 987 730 777 582 273 166 0 0 0 0 0 0 0 0 0 0 0 0 65 26 0 0 0 0 0 0 0 0 0 0 0 0 173 558 725 739 769 802 849 932 1104 1318 1548 1591 1551 1534 1464 1091 793 702 557 473 455 409 275 160 55 66 0 0 0 0 0
1350 1128 1427 1574 1702 1962 2144 2357 2093 1977 1645 1449 1251 988 922 846 727 735 607 738 994 682 767 1652 1100 148 0 0 0 0 0 0 0 0 0 0 0 0 0 65 37 13 13 31 8 0 0 0 0 0 0 0 0 1 3 11 213 536 662 707 708 707 828 918 1062 1358 1348 1424 1456 1387 806 622 467 419 368 528 182 92 221 0 0 0 0 0 0
1518 1317 1214 1221 886 850 1222 1578 2001 2130 1126 1525 1506 1571 920 540 530 539 725 982 743 442 1574 1242 821 1359 454 280 10 0 0 0 0 0 0 0 0 0 0 4 64 117 86 100 50 10 1 0 0 0 0 0 0 0 0 3 11 85 261 382 518 525 544 686 816 731 919 854 867 699 661 579 580 391 491 486 210 218 12 0 0 0 0 0 0
1499 1393 1490 1509 1225 1229 1190 1302 1010 1184 2361 1015 1683 1307 912 1180 988 883 934 1187 698 771 756 596 441 932 628 878 394 73 0 0 0 0 4 0 0 349 302 68 2 0 1 0 0 0 1 1 1 1 0 0 0 0 0 0 6 15 33 156 290 362 378 365 471 574 583 581 608 503 562 465 361 429 538 272 223 0 0 0 0 0 0 0 0
1072 1018 1025 1016 980 1387 1015 1086 1191 1174 1203 1110 649 760 633 497 757 701 1126 895 868 739 662 573 494 573 687 661 621 69 86 42 17 119 97 87 126 34 13 0 0 0 0 0 0 0 1 2 2 7 6 2 0 0 0 0 2 5 6 17 50 118 144 160 170 299 238 420 429 422 421 414 315 325 433 301 292 46 4 0 0 0 0 0 0
943 921 744 862 578 1058 886 1036 918 846 537 734 576 704 815 675 506 592 642 631 588 481 432 729 682 1010 739 648 231 124 72 17 42 71 12 0 0 0 0 1 2 3 3 1 1 3 3 3 7 12 14 18 41 33 4 0 0 1 2 5 8 18 74 78 26 123 268 309 400 299 398 379 153 271 409 318 144 20 18 1 0 0 0 0 0
633 676 878 658 555 1214 872 849 936 1061 1069 1088 1136 878 880 775 897 755 545 518 479 551 599 529 740 925 420 0 0 8 119 98 142 36 0 0 0 0 1 3 6 6 3 2 3 4 5 5 7 6 4 5 6 4 4 7 12 7 4 2 5 6 2 4 11 38 109 164 156 232 292 246 273 342 142 18 5 28 1 0 0 0 0 0 0
818 684 848 697 729 652 556 758 740 923 935 877 823 595 726 719 573 645 539 610 518 511 447 527 668 582 60 0 0 0 105 143 65 38 3 0 0 0 1 5 8 6 6 3 6 6 4 6 9 9 6 2 2 0 0 1 0 0 0 1 2 0 0 0 0 8 13 32 20 34 193 106 5 5 3 52 30 10 1 0 0 0 0 0 0
559 419 437 368 197 152 196 212 283 225 405 372 349 312 469 560 481 452 345 380 353 296 300 319 294 197 404 15 55 0 210 133 60 49 16 0 0 4 7 9 6 5 8 7 3 5 2 6 14 15 5 3 2 0 0 0 0 0 1 3 0 0 0 2 4 50 30 48 55 31 115 5 26 41 54 44 32 10 0 0 0 0 0 0 0
151 38 5 19 34 0 0 2 5 9 5 34 17 1 0 30 8 24 153 193 176 143 92 53 88 130 118 322 268 537 38 1 1 2 2 2 4 4 6 7 7 8 10 5 2 3 1 2 4 1 6 0 0 0 0 0 0 1 2 1 0 0 1 2 2 0 1 8 7 17 19 7 38 56 34 22 12 11 11 7 10 3 0 0 0
2 3 0 0 2 6 2 3 2 1 0 0 0 0 0 0 0 1 0 2 0 24 0 1 2 3 14 29 63 0 1 1 2 2 2 4 2 1 1 7 8 10 10 3 3 1 1 0 0 5 10 2 2 0 0 0 0 0 0 0 1 0 0 0 0 0 24 27 33 26 25 25 24 24 30 30 18 19 22 22 14 0 0 0 0
1 1 2 1 0 0 0 0 0 0 0 0 0 1 1 1 2 2 1 0 0 0 2 1 3 1 0 2 1 0 1 3 2 0 2 3 0 0 4 6 8 10 8 4 2 0 0 0 0 10 7 4 0 0 0 0 0 0 0 0 0 0 0 0 0 0 0 0 0 7 18 39 51 55 45 31 26 5 0 0 0 0 0 0 0
0 0 0 0 0 0 0 0 0 0 0 0 0 0 1 1 1 1 1 1 1 1 1 2 2 1 1 4 0 2 2 0 0 1 2 4 6 4 5 6 6 9 3 1 0 0 0 0 16 20 30 21 14 6 0 0 0 0 0 0 0 0 0 0 0 0 0 0 5 21 39 48 59 66 66 57 40 23 1 0 0 0 0 0 0
0 0 0 0 0 0 0 0 0 1 1 0 0 0 1 0 0 0 0 1 1 1 1 1 1 1 2 2 1 3 2 1 2 3 8 1 2 2 8 4 4 4 2 1 0 2 1 0 20 21 18 17 0 0 0 0 0 0 0 0 0 0 0 0 0 0 0 0 5 12 22 23 22 20 14 0 0 0 0 0 0 0 0 0 0
0 0 0 0 0 0 0 0 0 0 0 0 1 0 0 2 1 0 0 1 1 1 1 2 2 2 2 2 2 2 2 2 16 17 13 4 1 12 8 0 0 0 0 3 0 0 0 4 25 29 20 19 21 14 13 14 11 1 0 1 1 7 1 1 1 10 14 20 23 25 24 22 6 0 0 0 0 0 0 0 0 0 0 0 0
0 0 0 0 0 0 0 0 0 0 0 0 0 0 0 0 1 0 0 0 0 2 2 2 2 2 1 3 3 2 3 3 4 5 4 4 9 10 1 0 1 0 4 0 0 0 1 18 28 41 23 15 16 24 30 34 31 36 31 29 30 30 29 29 33 42 46 42 28 26 22 5 0 0 0 0 0 0 0 0 0 0 0 0 0
0 0 0 0 0 0 0 0 0 0 0 0 0 0 0 0 0 1 0 0 0 1 1 1 1 2 2 2 5 4 4 4 2 1 2 2 2 3 8 2 8 17 14 4 1 0 0 0 6 29 19 1 5 21 20 17 24 28 25 30 24 24 27 27 28 25 4 0 0 0 0 0 0 0 0 0 0 0 0 0 0 0 0 0 0
Wind_Speed
16 16 16 15 17 17 16 15 14 13 12 13 13 13 13 13 14 14 16 16 17 17 17 17 19 20 19 18 18 18 18 18 18 18 17 16 15 15 15 18 17 17 16 15 14 12 13 12 12 12 13 13 12 12 12 14 15 15 14 14 14 14 15 15 15 14 13 16 16 20 24 28 26 25 26 27 28 30 28 26 27 27 28 28 31
14 16 16 15 16 16 16 15 14 13 14 14 15 15 16 16 16 17 17 18 19 19 19 19 19 20 20 21 20 20 20 20 20 20 19 18 17 15 15 17 18 18 17 16 16 14 14 14 13 14 15 15 14 14 13 12 15 14 13 13 15 15 15 15 15 15 16 16 17 17 20 27 27 28 27 28 28 29 29 28 29 31 31 30 32
13 15 14 14 15 15 15 15 15 15 16 16 17 17 17 17 18 18 17 18 19 19 20 20 20 20 20 21 22 21 21 22 21 21 20 21 20 18 17 17 19 19 19 18 18 16 15 16 16 15 16 17 16 16 15 13 13 15 14 13 14 15 16 16 16 16 17 17 20 21 23 23 24 29 29 28 28 32 31 31 31 31 31 32 32
13 14 13 13 15 15 15 14 17 18 18 18 19 18 18 18 18 17 17 16 17 18 18 20 20 19 19 20 22 22 21 22 22 22 22 22 21 20 19 18 19 20 19 19 19 18 17 17 17 17 17 18 18 17 16 15 14 16 16 15 15 16 17 19 19 18 18 18 19 23 24 26 24 27 30 29 31 31 33 32 34 33 33 35 35
14 14 14 14 14 14 15 16 17 18 19 18 19 20 20 19 18 17 16 16 16 18 18 18 19 19 18 19 20 22 22 22 23 22 22 22 22 22 21 20 19 20 20 19 19 18 17 17 18 18 18 18 19 19 18 18 17 17 19 18 19 19 19 21 22 22 21 21 20 21 22 24 26 27 30 30 31 31 31 33 35 36 35 35 35
15 16 16 15 14 15 15 16 17 19 19 19 20 20 20 18 17 17 16 16 16 16 18 17 17 18 18 19 18 20 21 22 22 22 22 22 23 23 23 22 20 19 20 20 20 18 17 17 18 19 19 20 20 22 22 21 20 20 21 22 23 23 23 22 24 25 24 23 22 21 23 24 25 26 29 31 31 32 32 32 33 34 37 37 37
15 16 17 16 16 16 17 17 17 18 19 18 18 20 20 19 18 17 17 17 16 15 16 17 16 17 17 18 18 18 20 21 21 22 22 22 23 24 24 24 22 20 19 19 20 19 18 18 19 20 20 20 21 23 25 25 23 23 23 25 26 25 26 25 25 26 26 25 24 24 23 24 27 27 29 32 32 32 33 34 34 35 36 39 39
15 16 17 16 15 17 17 17 17 17 18 19 19 19 19 18 16 16 18 17 16 15 14 15 16 16 16 16 17 17 17 19 20 22 23 23 23 24 24 24 23 21 19 19 19 19 19 19 20 21 21 21 22 24 26 27 26 24 25 26 27 27 27 27 27 27 27 27 27 27 27 26 27 28 30 32 32 32 33 35 37 37 38 39 41
15 16 17 16 16 16 17 17 16 17 19 20 19 19 18 17 16 16 17 17 15 14 13 12 15 16 15 15 16 17 16 17 19 20 22 22 22 22 22 23 23 21 19 19 20 20 19 19 19 21 23 24 25 25 27 29 29 27 26 27 27 27 27 28 28 28 27 28 29 29 29 29 29 31 32 34 37 37 36 35 34 37 38 39 41
15 15 15 15 16 17 17 16 16 16 18 19 19 19 18 18 17 16 16 16 17 16 14 13 13 15 15 15 15 14 14 13 17 22 22 20 20 19 19 20 21 21 20 20 20 21 21 20 20 23 25 27 27 27 28 30 31 30 30 29 28 27 27 29 30 29 28 28 30 32 31 31 32 32 32 34 35 37 38 38 38 37 38 39 41
17 15 14 15 16 16 17 17 17 16 17 18 19 19 19 18 18 17 16 16 17 18 16 14 12 13 15 15 15 13 12 11 19 21 23 25 22 20 19 19 20 21 21 21 21 22 23 23 22 25 26 28 29 30 29 29 31 31 33 33 31 30 29 30 30 32 31 29 31 32 33 33 33 33 33 35 37 39 41 41 40 41 41 41 41
19 18 17 17 16 16 16 17 17 16 17 18 18 19 19 18 17 17 17 17 17 17 17 15 13 12 13 14 13 11 10 12 19 21 23 25 24 21 20 19 20 20 21 22 22 22 23 24 25 25 26 27 29 30 31 31 32 33 33 34 33 32 31 32 33 33 34 33 33 34 35 36 36 36 36 37 37 39 42 44 44 44 44 44 43
23 23 22 20 18 16 16 17 17 16 16 17 19 20 20 18 17 17 17 17 17 16 16 16 14 13 11 12 12 11 9 12 17 20 23 24 26 23 19 20 20 21 21 23 23 24 24 25 25 26 25 31 30 30 31 31 32 35 36 35 35 35 33 32 34 35 37 37 36 36 37 39 40 39 39 39 40 42 44 45 46 46 47 46 45
25 26 25 23 21 19 17 16 16 16 16 18 19 19 19 18 17 16 17 18 17 15 15 15 14 12 11 9 10 10 9 11 17 19 21 24 25 24 19 21 20 21 23 24 25 26 28 28 29 28 29 31 31 31 31 31 32 33 35 35 34 34 35 35 35 38 39 39 40 39 40 42 42 42 43 43 42 45 47 47 49 49 49 49 49
25 26 26 26 24 21 18 16 16 16 16 18 19 19 19 18 18 18 17 17 16 15 15 14 13 13 12 11 10 9 8 14 19 20 21 25 27 25 21 21 20 21 22 24 26 28 29 31 31 31 32 33 34 35 34 34 34 34 35 36 35 35 35 34 34 36 38 38 41 42 43 45 44 44 45 46 44 46 49 50 52 52 51 51 50
26 26 26 28 27 24 20 17 17 17 17 18 18 17 18 19 19 19 17 16 16 16 16 15 14 14 14 14 13 11 10 16 20 21 23 25 29 25 24 23 21 20 22 24 26 27 28 30 31 32 34 35 37 41 39 38 37 37 37 36 35 35 34 34 35 37 37 38 41 44 45 46 47 46 48 48 47 49 51 53 53 54 55 55 54
27 26 26 27 27 27 23 19 17 17 17 16 15 15 17 19 19 21 18 16 16 16 15 15 15 15 16 17 16 14 13 18 24 24 25 27 27 26 27 27 25 23 22 24 25 26 27 29 31 32 35 36 39 42 41 42 38 37 37 37 36 36 34 34 35 37 36 36 41 44 45 48 52 51 48 51 51 52 54 55 56 58 58 56 56
28 27 27 28 27 27 24 19 16 16 15 13 13 14 17 19 19 21 19 17 15 14 14 14 15 16 16 16 17 16 17 23 30 30 31 32 32 28 28 29 28 26 25 25 25 26 27 30 33 33 34 35 39 42 43 43 39 38 37 37 36 35 35 36 37 38 36 36 39 44 48 51 51 53 54 50 54 57 56 57 58 59 58 58 57
29 28 28 29 29 28 24 16 13 14 12 11 13 15 17 18 18 19 18 17 15 15 15 15 15 16 17 17 18 19 19 24 33 35 36 36 34 29 29 29 28 28 29 28 27 28 28 30 33 34 34 35 41 43 46 45 41 40 40 40 40 39 38 40 40 42 43 43 41 44 46 50 52 53 54 54 55 56 56 57 59 60 59 58 57
32 31 31 31 30 29 24 16 12 12 12 10 11 12 15 16 16 18 18 18 17 16 16 16 17 17 18 18 18 20 21 23 31 34 37 36 36 33 31 30 28 28 29 30 31 31 30 31 34 34 33 36 42 44 47 49 45 43 43 43 43 41 42 43 43 44 46 46 45 48 49 52 52 53 55 55 53 54 56 58 60 61 59 57 56
35 34 34 33 32 29 25 19 15 13 12 12 12 11 13 14 15 17 17 18 18 18 17 18 17 18 18 19 18 20 22 23 28 34 34 35 34 33 31 29 28 30 30 31 31 31 31 32 32 38 37 38 43 46 48 49 49 47 45 43 44 44 48 46 47 50 50 48 48 51 52 54 55 55 57 57 56 55 57 59 61 62 60 58 57
36 36 36 34 32 29 25 22 20 17 16 16 15 14 14 15 16 18 18 18 19 19 20 20 20 19 20 21 21 23 25 30 28 34 36 36 35 35 31 29 31 31 32 31 32 32 33 36 37 39 42 41 44 48 49 49 50 47 45 44 45 50 51 50 51 53 54 52 51 52 53 54 56 57 59 60 58 59 59 59 60 62 59 56 57
35 36 37 34 31 30 27 24 24 22 21 20 19 17 18 17 18 20 21 21 22 23 23 23 23 22 23 25 26 28 29 30 33 35 36 38 38 37 34 31 33 35 34 33 33 34 37 38 39 39 44 45 47 49 51 51 49 47 46 47 49 52 53 53 54 57 57 57 55 54 53 54 55 56 58 60 61 60 60 60 62 64 62 59 57
32 35 36 34 32 31 29 27 27 26 25 26 24 23 22 21 22 23 24 25 26 25 25 26 26 25 25 26 28 30 33 33 39 43 41 40 38 38 36 32 33 37 38 36 37 38 39 41 43 41 45 46 47 49 52 54 52 50 49 50 53 55 54 55 58 59 60 60 57 56 55 55 55 55 57 59 62 62 61 62 64 64 64 63 61
30 33 35 34 33 32 31 30 30 30 30 30 28 27 26 26 26 27 28 29 29 28 29 29 29 28 28 29 31 33 35 36 37 45 48 46 43 41 39 38 36 38 40 41 39 40 41 42 44 43 45 48 50 51 52 54 55 54 54 54 56 57 56 58 61 63 63 62 60 59 59 58 57 57 59 62 63 64 62 61 62 62 65 65 63
30 31 32 33 33 32 31 31 34 34 34 33 31 30 29 29 29 31 32 32 31 30 31 32 32 32 32 32 34 35 36 39 39 45 47 47 42 38 36 35 33 34 36 36 36 36 39 42 44 43 46 49 53 56 62 55 53 55 58 58 59 58 59 60 63 66 65 65 65 63 61 62 61 61 63 64 63 63 64 64 63 62 65 65 nan
28 29 31 32 33 33 34 34 35 35 36 35 35 34 32 32 32 34 35 32 32 33 33 34 34 35 36 37 38 37 39 42 46 53 53 52 50 51 51 47 45 44 45 46 39 40 39 42 45 43 45 52 55 57 57 57 58 57 57 60 62 61 62 63 65 67 68 69 69 68 67 66 65 66 65 64 62 63 65 65 64 65 66 nan nan
29 28 30 31 33 34 36 35 37 38 38 38 37 37 36 35 35 36 34 33 34 38 38 38 39 40 41 42 41 42 45 52 53 53 54 53 53 53 54 54 54 55 52 52 51 47 46 45 44 47 50 54 56 57 57 57 58 60 62 63 64 64 64 65 66 67 69 69 70 71 72 71 69 67 66 64 63 65 67 66 67 68 69 nan nan
29 30 31 32 35 37 39 40 40 40 47 49 49 46 41 43 47 46 43 41 48 47 49 51 50 48 51 48 46 47 49 54 55 57 59 58 59 58 58 57 57 57 56 57 54 53 54 54 52 50 52 55 55 58 58 57 57 60 61 63 63 64 66 68 67 66 68 70 68 70 71 72 70 70 67 64 64 65 66 66 68 71 nan nan nan
38 37 36 37 37 39 42 44 45 46 46 47 49 49 52 54 49 48 47 53 63 62 58 52 49 49 52 51 50 54 56 56 58 65 64 62 63 61 61 60 59 58 55 53 58 58 57 56 57 57 56 57 57 57 57 57 57 60 61 61 63 64 65 67 66 66 68 68 68 69 69 69 69 70 69 67 66 65 65 67 68 72 nan nan nan
38 38 38 37 38 40 42 44 44 44 45 46 49 50 50 53 57 57 56 56 62 64 63 64 64 61 58 58 59 64 64 61 60 58 60 64 64 64 64 64 62 60 59 62 63 63 61 61 59 60 59 58 57 56 56 56 57 59 60 62 63 63 64 63 63 64 66 67 69 70 70 69 68 67 68 69 68 66 64 65 69 71 nan nan nan
39 38 38 38 39 40 40 41 43 43 43 44 46 47 49 51 50 51 53 58 62 64 66 66 66 67 67 64 61 60 60 60 59 59 60 61 64 66 67 67 nan nan nan nan nan nan nan nan 60 59 59 57 55 53 54 55 56 57 58 60 62 64 64 63 64 64 66 70 74 74 73 70 71 70 69 69 71 68 66 67 70 71 nan nan nan
40 40 41 42 43 43 43 43 44 44 44 45 46 46 48 49 50 49 51 54 57 62 65 65 66 67 66 65 64 64 60 58 61 nan nan nan nan nan nan nan nan nan nan nan nan nan nan nan nan nan 57 55 53 52 51 53 55 56 57 58 58 60 62 63 66 67 71 76 78 73 73 73 73 71 70 71 70 68 68 69 nan nan nan nan nan
43 42 42 42 42 43 44 45 45 46 47 47 47 48 48 49 51 53 53 53 56 57 57 nan nan nan nan nan nan nan nan nan nan nan nan nan nan nan nan nan nan nan nan nan nan nan nan nan nan nan nan nan 55 53 52 53 56 56 56 54 53 55 59 64 68 70 76 79 76 74 75 74 72 71 71 71 68 68 nan nan nan nan nan nan nan
46 48 50 46 43 44 45 46 47 47 48 49 51 50 52 53 54 54 54 56 57 57 58 57 55 56 63 64 nan nan nan nan nan nan nan nan nan nan nan nan nan nan nan nan nan nan nan nan nan nan nan nan nan nan 54 53 55 56 56 55 54 55 58 64 68 71 74 74 75 76 76 76 73 72 72 73 71 67 nan nan nan nan nan nan nan
47 47 47 48 47 47 47 47 48 48 49 50 50 51 51 52 54 55 55 57 59 59 61 61 59 57 nan nan nan nan nan nan nan nan nan nan nan nan nan nan nan nan nan nan nan nan nan nan nan nan nan nan nan nan nan nan 53 55 56 56 56 59 60 65 71 74 75 75 74 75 77 77 75 73 71 71 69 nan 67 nan nan nan nan nan nan
49 50 50 49 49 50 49 49 48 48 48 50 50 51 53 53 53 55 56 58 59 59 57 62 61 63 61 62 nan nan nan nan nan nan nan nan nan nan nan nan nan 65 nan nan nan nan nan nan nan nan nan nan nan nan nan nan nan nan 56 57 58 62 66 71 77 81 81 80 80 80 81 79 77 73 70 69 68 67 nan nan nan nan nan nan nan
55 53 52 52 52 52 51 51 51 49 51 52 52 53 55 55 55 57 57 60 58 59 61 62 61 62 62 63 67 nan nan nan nan nan nan nan nan 67 66 nan nan nan nan nan nan nan nan nan nan nan nan nan nan nan nan nan nan nan nan 56 59 61 65 73 78 76 75 78 79 79 78 75 72 70 68 67 66 nan nan nan nan nan nan nan nan
56 57 59 58 56 54 53 52 52 51 52 55 56 55 57 57 59 59 58 59 60 61 62 62 60 60 65 65 65 nan nan nan nan 60 nan nan 66 nan nan nan nan nan nan nan nan nan nan nan nan nan nan nan nan nan nan nan nan nan nan nan nan 59 64 71 70 68 63 62 64 68 71 68 65 64 64 64 64 nan nan nan nan nan nan nan nan
58 58 58 54 55 56 56 57 57 58 56 58 59 56 59 62 61 61 59 60 61 60 59 59 64 68 65 63 63 62 nan nan nan nan nan nan nan nan nan nan nan nan nan nan nan nan nan nan nan nan nan nan nan nan nan nan nan nan nan nan nan nan nan nan nan 47 40 40 46 50 55 62 64 61 59 60 68 nan nan nan nan nan nan nan nan
60 59 60 63 60 57 61 61 62 61 61 61 62 61 63 62 63 63 62 62 61 60 61 61 62 64 64 nan nan nan 56 nan 54 nan nan nan nan nan nan nan nan nan nan nan nan nan nan nan nan nan nan nan nan nan nan nan nan nan nan nan nan nan nan nan nan nan 28 42 55 58 53 50 51 56 59 nan nan nan nan nan nan nan nan nan nan
63 62 63 63 63 64 64 64 64 64 63 64 64 63 63 62 61 61 61 60 60 59 57 59 59 61 nan nan nan nan 53 51 nan nan nan nan nan nan nan nan nan nan nan nan nan nan nan nan nan nan nan nan nan nan nan nan nan nan nan nan nan nan nan nan nan nan nan nan nan nan 62 46 nan nan nan nan nan nan nan nan nan nan nan nan nan
65 64 64 66 67 66 65 65 65 66 66 66 66 65 64 63 63 61 61 61 60 59 57 56 56 54 50 nan nan nan 48 51 nan nan nan nan nan nan nan nan nan nan nan nan nan nan nan nan nan nan nan nan nan nan nan nan nan nan nan nan nan nan nan nan nan nan nan nan nan nan 58 nan nan nan nan nan nan nan nan nan nan nan nan nan nan
66 nan nan nan nan nan nan nan nan nan nan nan nan nan nan nan nan nan 61 60 60 59 nan nan nan 51 48 48 47 48 nan nan nan nan nan nan nan nan nan nan nan nan nan nan nan nan nan nan nan nan nan nan nan nan nan nan nan nan nan nan nan nan nan nan nan nan nan nan nan nan nan nan nan nan nan nan nan nan nan nan nan nan nan nan nan
nan nan nan nan nan nan nan nan nan nan nan nan nan nan nan nan nan nan nan nan nan nan nan nan nan nan nan nan nan nan nan nan nan nan nan nan nan nan nan nan nan nan nan nan nan nan nan nan nan nan nan nan nan nan nan nan nan nan nan nan nan nan nan nan nan nan nan nan nan nan nan nan nan nan nan nan nan nan nan nan nan nan nan nan nan
nan nan nan nan nan nan nan nan nan nan nan nan nan nan nan nan nan nan nan nan nan nan nan nan nan nan nan nan nan nan nan nan nan nan nan nan nan nan nan nan nan nan nan nan nan nan nan nan nan nan nan nan nan nan nan nan nan nan nan nan nan nan nan nan nan nan nan nan nan nan nan nan nan nan nan nan nan nan nan nan nan nan nan nan nan
nan nan nan nan nan nan nan nan nan nan nan nan nan nan nan nan nan nan nan nan nan nan nan nan nan nan nan nan nan nan nan nan nan nan nan nan nan nan nan nan nan nan nan nan nan nan nan nan nan nan nan nan nan nan nan nan nan nan nan nan nan nan nan nan nan nan nan nan nan nan nan nan nan nan nan nan nan nan nan nan nan nan nan nan nan
nan nan nan nan nan nan nan nan nan nan nan nan nan nan nan nan nan nan nan nan nan nan nan nan nan nan nan nan nan nan nan nan nan nan nan nan nan nan nan nan nan nan nan nan nan nan nan nan nan nan nan nan nan nan nan nan nan nan nan nan nan nan nan nan nan nan nan nan nan nan nan nan nan nan nan nan nan nan nan nan nan nan nan nan nan
nan nan nan nan nan nan nan nan nan nan nan nan nan nan nan nan nan nan nan nan nan nan nan nan nan nan nan nan nan nan nan nan nan nan nan nan nan nan nan nan nan nan nan nan nan nan nan nan nan nan nan nan nan nan nan nan nan nan nan nan nan nan nan nan nan nan nan nan nan nan nan nan nan nan nan nan nan nan nan nan nan nan nan nan nan
nan nan nan nan nan nan nan nan nan nan nan nan nan nan nan nan nan nan nan nan nan nan nan nan nan nan nan nan nan nan nan nan nan nan nan nan nan nan nan nan nan nan nan nan nan nan nan nan nan nan nan nan nan nan nan nan nan nan nan nan nan nan nan nan nan nan nan nan nan nan nan nan nan nan nan nan nan nan nan nan nan nan nan nan nan
nan nan nan nan nan nan nan nan nan nan nan nan nan nan nan nan nan nan nan nan nan nan nan nan nan nan nan nan nan nan nan nan nan nan nan nan nan nan nan nan nan nan nan nan nan nan nan nan nan nan nan nan nan nan nan nan nan nan nan nan nan nan nan nan nan nan nan nan nan nan nan nan nan nan nan nan nan nan nan nan nan nan nan nan nan
Wind_Direction
300 294 292 295 298 305 307 306 310 308 310 310 308 307 303 305 301 303 296 302 302 305 304 298 297 299 301 297 300 300 300 302 303 307 310 313 315 318 323 332 336 330 324 325 326 319 320 318 317 317 322 333 338 341 340 330 327 327 326 326 328 324 327 333 338 346 340 338 346 342 351 347 355 352 351 353 349 354 354 349 340 342 340 339 337
292 290 289 291 301 301 303 301 305 301 312 309 311 307 305 303 299 298 303 303 301 304 305 302 296 298 301 300 300 299 299 299 301 302 308 312 316 312 316 320 329 332 328 325 322 319 316 317 316 317 320 330 335 340 341 337 332 332 336 334 334 333 331 334 345 345 354 347 347 347 347 352 354 356 351 353 350 351 350 347 342 343 342 342 339
291 282 288 291 296 295 298 301 303 310 320 313 319 317 309 303 301 303 305 304 304 305 304 305 301 299 299 297 300 299 299 302 299 300 305 310 315 316 316 315 319 326 331 330 324 318 316 316 318 314 313 325 333 336 339 342 334 337 341 341 341 338 335 337 336 346 350 348 344 346 352 351 349 352 355 351 350 350 351 349 346 344 342 342 342
293 291 294 297 300 300 304 301 317 320 322 313 318 317 311 306 303 308 310 309 309 310 308 308 305 303 302 298 298 299 298 299 301 302 304 308 311 314 314 315 315 319 325 328 327 320 318 313 316 315 314 319 324 327 330 332 331 328 336 335 338 339 334 332 335 333 336 344 341 347 346 349 348 343 350 350 352 350 352 352 350 347 344 342 342
298 299 303 309 310 305 309 312 317 321 321 314 320 319 316 313 306 313 316 320 317 310 312 310 309 309 308 305 300 299 300 299 301 303 302 304 310 312 311 312 313 314 317 320 323 322 318 314 311 310 311 313 314 319 322 327 329 323 325 326 327 329 328 328 331 329 329 333 337 338 339 342 344 343 342 344 349 351 351 353 351 351 349 344 340
301 299 302 308 304 309 309 315 319 321 319 318 321 319 318 316 313 311 318 323 323 321 317 316 314 314 312 310 306 300 297 297 299 302 304 303 304 308 308 309 310 310 312 313 315 318 317 312 307 309 310 312 312 314 316 324 324 326 324 323 323 323 327 325 324 328 328 328 327 330 335 336 336 339 339 341 342 348 350 351 351 350 349 349 347
297 303 307 313 307 312 314 313 309 311 309 310 311 312 318 321 322 318 316 325 333 334 325 323 320 320 317 313 314 308 302 301 298 299 300 300 301 304 307 307 307 306 306 309 311 315 317 312 309 310 313 312 311 312 314 318 322 326 326 323 323 326 328 329 325 325 327 327 326 328 330 333 332 334 333 333 339 339 343 347 350 349 349 349 348
301 303 305 310 308 314 310 305 306 302 298 300 304 308 313 314 312 305 307 322 335 335 336 327 321 325 322 318 316 313 309 305 302 301 302 303 302 304 306 306 308 308 307 306 307 311 315 317 317 315 316 313 311 309 311 314 315 320 320 319 321 325 328 328 327 325 323 325 326 326 329 329 328 330 326 328 332 337 338 338 344 345 347 347 347
302 307 308 311 309 304 298 294 293 291 293 295 301 304 305 302 299 300 303 314 319 329 335 336 326 328 328 323 322 321 321 315 306 306 308 312 310 312 314 314 313 314 313 312 309 309 312 314 315 317 317 321 324 316 314 312 310 314 313 314 317 321 323 323 323 322 322 322 323 322 324 328 328 327 331 331 335 336 331 334 336 336 339 343 345
300 307 313 311 300 296 297 292 287 282 283 289 295 298 296 294 296 299 306 311 309 317 323 331 333 329 330 331 330 329 328 318 322 330 325 319 322 321 321 324 324 323 322 321 319 318 319 318 317 326 324 325 326 325 320 317 317 311 307 309 312 314 318 319 318 317 317 321 322 320 324 325 326 327 328 330 328 327 329 330 335 334 332 337 339
301 308 308 301 297 297 298 297 288 282 278 279 282 290 294 291 292 297 305 310 312 314 319 328 339 331 334 341 345 343 337 328 338 335 337 338 329 327 327 327 328 329 329 329 327 325 324 324 320 323 325 323 324 325 324 321 318 316 313 312 310 311 311 315 313 311 314 316 315 317 320 321 322 322 324 323 326 328 330 328 329 330 332 333 337
306 306 301 297 300 305 304 302 297 290 278 277 283 288 290 293 295 299 306 312 309 307 318 327 328 331 329 345 355 353 349 346 339 341 340 341 336 329 328 326 329 334 334 334 331 330 329 329 327 322 322 325 321 319 324 325 321 318 314 312 313 315 314 311 309 309 311 312 313 316 315 316 316 318 319 321 323 325 326 326 328 329 330 332 333
299 304 305 301 301 300 302 308 308 299 288 282 280 283 291 297 299 299 307 305 301 311 316 320 326 329 334 337 351 354 352 345 340 345 346 344 343 337 326 329 333 338 340 341 339 337 336 334 333 330 326 331 326 321 320 320 321 322 319 315 316 316 315 316 315 311 307 310 312 313 314 312 314 316 318 317 316 321 322 324 326 327 326 329 330
293 302 303 304 301 298 300 307 311 307 293 285 283 288 292 296 295 291 289 293 304 312 311 314 315 319 326 326 325 336 344 329 333 341 343 342 339 333 324 327 332 337 340 341 339 340 340 338 336 333 329 323 325 327 323 321 316 310 309 308 308 314 316 319 319 318 313 310 310 312 310 309 311 311 314 315 315 317 319 322 322 323 324 326 325
287 292 299 301 301 300 298 297 300 298 293 289 290 294 294 288 287 284 288 296 299 298 300 300 302 305 312 312 300 305 319 322 319 330 334 335 335 323 320 321 324 330 333 334 336 338 337 335 334 331 325 322 319 327 325 324 320 316 314 313 313 310 309 309 312 307 306 305 306 308 306 307 309 308 307 310 314 313 315 317 318 319 317 317 318
287 285 290 296 302 303 298 292 287 288 289 290 296 301 296 289 286 282 281 283 281 280 281 283 289 291 292 299 305 308 306 313 313 321 326 327 328 306 313 320 319 322 326 327 329 330 331 329 327 325 322 321 321 327 326 319 318 318 318 317 314 312 312 317 319 313 309 306 301 299 300 303 306 306 305 306 308 308 307 308 309 310 312 314 318
285 284 283 288 297 302 303 299 291 285 283 289 298 300 291 283 278 275 282 284 283 283 282 284 282 288 297 299 307 306 303 301 305 313 315 318 307 291 308 313 318 323 323 320 321 323 322 322 321 319 320 321 322 324 327 320 314 314 314 315 313 312 314 312 316 316 316 312 306 301 298 299 298 300 302 311 307 305 304 306 309 308 309 312 313
281 279 278 281 286 295 302 303 298 291 284 288 290 284 280 277 280 281 288 290 293 292 287 285 292 299 308 312 310 306 303 300 306 313 319 318 313 298 307 309 316 320 321 316 311 310 316 325 321 317 319 320 321 322 324 321 316 316 317 315 311 310 311 309 301 302 311 310 304 301 300 295 296 297 299 304 308 306 305 308 307 306 307 309 310
276 277 273 273 278 287 294 298 302 306 300 284 276 280 282 281 280 279 287 291 293 286 288 294 301 302 315 318 313 313 305 300 305 310 317 317 314 305 307 307 311 316 312 310 308 305 306 309 319 321 320 317 317 318 321 320 319 319 317 315 319 321 315 305 299 298 299 297 297 296 295 294 293 293 294 300 305 306 304 304 302 303 305 306 308
266 266 267 269 273 280 284 285 289 301 305 294 283 280 276 280 288 290 291 292 291 293 295 300 305 304 304 305 309 310 308 302 299 307 307 309 313 303 300 303 311 311 304 303 303 304 306 304 307 318 321 316 314 317 319 323 319 315 312 314 318 324 313 306 305 301 300 303 303 302 302 297 296 295 295 296 299 300 299 299 299 300 302 303 306
258 260 263 267 271 277 277 275 280 285 284 283 283 284 284 288 289 289 297 294 291 292 298 300 302 298 302 302 303 309 309 313 307 316 314 312 311 303 293 301 303 298 295 296 298 300 300 301 298 304 316 317 314 315 317 322 322 313 312 314 317 313 305 304 307 307 300 301 300 299 299 298 298 298 297 296 296 296 296 297 299 301 302 303 305
250 255 260 264 268 272 271 264 269 271 267 267 272 276 280 286 286 290 293 290 292 291 291 291 292 294 295 295 297 301 308 317 313 320 323 320 316 320 303 302 300 295 294 294 294 296 297 294 296 302 311 315 313 311 315 317 320 311 314 320 315 308 304 302 299 299 299 300 300 299 300 301 301 301 300 298 298 296 296 297 298 299 299 299 301
244 249 255 260 262 265 263 260 261 263 263 265 266 267 270 276 276 281 286 287 287 288 288 289 289 289 286 288 291 296 299 304 313 312 321 320 320 320 323 312 307 299 298 298 298 297 293 293 295 300 306 312 314 314 312 314 310 314 320 314 311 308 304 298 297 298 297 298 299 300 301 301 302 304 304 302 301 299 296 294 294 295 297 300 300
242 247 252 256 259 259 257 255 256 258 260 262 263 261 262 265 267 273 278 280 281 283 284 285 285 288 289 289 292 292 295 297 303 310 310 315 312 315 319 319 309 299 301 299 298 295 294 293 293 297 301 306 312 314 311 311 311 321 319 314 309 305 301 300 298 297 296 295 298 298 298 298 298 299 301 301 298 298 297 296 296 299 300 298 297
244 245 248 252 253 252 251 250 254 255 257 262 264 263 264 265 265 267 271 275 276 277 280 282 284 285 286 289 291 294 295 297 297 303 308 309 311 311 314 316 316 312 300 298 298 296 296 301 302 302 303 305 311 312 309 312 317 317 318 317 309 300 302 301 300 299 300 301 301 298 297 297 296 294 292 292 292 293 295 296 297 297 297 299 297
244 244 245 247 249 249 252 254 254 256 257 261 263 264 264 266 266 265 268 270 272 277 279 282 286 289 291 291 292 292 294 292 294 290 289 286 287 286 285 286 290 293 289 285 293 298 300 301 300 300 298 299 298 298 295 303 312 317 320 317 305 305 302 302 302 304 306 305 304 303 301 297 295 292 290 290 291 293 295 295 295 296 297 297 nan
249 246 247 248 248 248 251 254 255 257 257 260 262 262 262 266 265 266 267 270 274 277 279 281 283 284 283 283 284 288 290 291 283 279 282 286 287 289 291 294 300 298 295 295 292 286 285 286 290 294 296 298 301 303 306 310 309 309 305 304 308 307 305 304 304 304 305 304 303 303 301 299 295 294 295 295 296 294 295 296 296 296 294 nan nan
249 250 252 250 250 249 250 259 260 259 260 259 264 267 268 270 272 273 273 275 278 279 279 279 278 279 280 278 276 276 277 277 277 278 277 277 278 280 285 288 290 292 294 293 293 293 291 287 285 284 285 287 292 289 293 298 305 305 304 306 307 307 307 306 304 301 301 301 299 298 297 297 298 298 296 296 297 295 297 297 296 294 293 nan nan
252 254 253 250 250 248 250 251 255 258 256 255 254 251 251 259 261 260 256 257 260 261 266 266 266 269 273 274 274 275 276 276 276 279 280 281 282 283 282 283 284 286 286 280 283 286 288 291 292 293 292 293 294 296 297 300 302 303 305 304 303 303 301 298 300 301 299 297 296 294 293 292 293 293 294 294 294 295 295 294 292 291 nan nan nan
248 246 246 243 244 245 245 246 245 252 257 257 257 254 249 248 256 265 262 259 260 261 266 270 269 271 275 273 272 274 275 277 279 280 281 282 284 286 286 288 289 287 285 281 286 287 290 291 293 295 297 297 299 300 302 301 301 300 299 300 299 297 297 297 298 298 296 295 293 290 288 287 287 287 288 291 289 290 293 292 290 291 nan nan nan
249 249 246 245 244 245 244 242 246 254 257 256 255 257 256 250 246 252 262 265 267 268 269 269 266 265 272 275 274 276 277 277 273 273 277 282 285 286 289 290 290 289 287 283 286 291 293 295 297 297 297 296 297 301 302 303 303 301 299 298 297 297 297 296 297 296 295 292 289 286 284 284 283 281 282 283 285 286 287 286 287 289 nan nan nan
249 251 253 254 251 250 250 252 253 253 256 258 258 259 260 260 257 251 252 262 268 269 271 271 272 272 271 273 274 276 278 276 273 273 273 273 277 281 285 288 nan nan nan nan nan nan nan nan 297 297 297 298 301 302 302 304 304 302 298 297 298 298 300 301 300 298 294 289 284 283 283 284 283 283 280 279 280 281 282 284 285 287 nan nan nan
249 249 249 249 250 251 254 256 257 258 258 261 263 263 262 263 263 263 259 253 257 266 271 272 274 275 275 275 276 277 276 273 268 nan nan nan nan nan nan nan nan nan nan nan nan nan nan nan nan nan 297 299 302 302 302 302 301 299 297 297 300 302 303 303 299 295 290 286 285 288 289 289 289 289 286 282 281 281 282 281 nan nan nan nan nan
250 250 251 252 252 254 254 254 255 255 255 257 257 258 260 261 264 266 265 264 263 260 261 nan nan nan nan nan nan nan nan nan nan nan nan nan nan nan nan nan nan nan nan nan nan nan nan nan nan nan nan nan 299 300 301 300 298 296 296 299 302 304 304 299 294 290 287 290 293 293 291 290 289 289 286 283 280 279 nan nan nan nan nan nan nan
250 253 257 254 254 254 254 255 254 255 257 259 259 259 257 256 257 258 261 265 266 268 270 268 268 270 273 273 nan nan nan nan nan nan nan nan nan nan nan nan nan nan nan nan nan nan nan nan nan nan nan nan nan nan 299 298 297 298 300 303 304 302 298 294 291 290 290 290 291 290 289 287 286 284 282 281 280 279 nan nan nan nan nan nan nan
253 252 251 252 251 251 251 251 253 254 255 255 256 258 258 259 260 262 263 264 264 264 267 271 272 274 nan nan nan nan nan nan nan nan nan nan nan nan nan nan nan nan nan nan nan nan nan nan nan nan nan nan nan nan nan nan 299 299 301 303 303 301 298 296 294 294 292 289 286 283 281 280 279 277 277 280 284 nan 281 nan nan nan nan nan nan
252 251 252 252 251 252 252 252 252 251 251 254 257 258 257 258 258 260 261 263 263 265 266 267 269 271 272 276 nan nan nan nan nan nan nan nan nan nan nan nan nan 284 nan nan nan nan nan nan nan nan nan nan nan nan nan nan nan nan 303 305 304 304 303 301 300 296 291 285 281 278 277 276 276 276 276 275 275 276 nan nan nan nan nan nan nan
244 245 247 250 254 254 254 254 254 251 254 256 254 256 258 259 261 260 260 263 266 267 267 269 272 273 275 276 275 nan nan nan nan nan nan nan nan 284 283 nan nan nan nan nan nan nan nan nan nan nan nan nan nan nan nan nan nan nan nan 300 303 305 309 308 304 295 287 281 278 274 272 271 270 270 270 270 272 nan nan nan nan nan nan nan nan
249 246 243 242 251 255 256 256 257 254 255 257 258 259 260 260 261 261 263 264 266 268 270 272 274 275 274 276 278 nan nan nan nan 278 nan nan 281 nan nan nan nan nan nan nan nan nan nan nan nan nan nan nan nan nan nan nan nan nan nan nan nan 308 308 303 300 295 289 284 279 274 268 265 265 265 265 266 265 nan nan nan nan nan nan nan nan
251 250 247 244 252 253 254 253 254 256 254 254 254 254 258 259 260 262 264 265 268 271 272 271 271 272 277 278 277 276 nan nan nan nan nan nan nan nan nan nan nan nan nan nan nan nan nan nan nan nan nan nan nan nan nan nan nan nan nan nan nan nan nan nan nan 296 285 278 281 276 266 264 265 264 260 257 256 nan nan nan nan nan nan nan nan
250 250 250 247 245 249 252 252 251 249 251 251 252 253 253 255 258 260 261 262 264 264 266 269 272 274 274 nan nan nan 277 nan 279 nan nan nan nan nan nan nan nan nan nan nan nan nan nan nan nan nan nan nan nan nan nan nan nan nan nan nan nan nan nan nan nan nan 270 275 271 260 254 257 259 256 252 nan nan nan nan nan nan nan nan nan nan
249 249 249 250 250 252 253 253 253 253 253 253 255 254 255 256 258 260 261 262 264 266 269 270 271 272 nan nan nan nan 282 281 nan nan nan nan nan nan nan nan nan nan nan nan nan nan nan nan nan nan nan nan nan nan nan nan nan nan nan nan nan nan nan nan nan nan nan nan nan nan 258 249 nan nan nan nan nan nan nan nan nan nan nan nan nan
248 249 250 251 251 250 252 253 254 255 255 256 257 256 257 258 259 259 261 261 263 264 266 266 264 262 271 nan nan nan 284 280 nan nan nan nan nan nan nan nan nan nan nan nan nan nan nan nan nan nan nan nan nan nan nan nan nan nan nan nan nan nan nan nan nan nan nan nan nan nan 245 nan nan nan nan nan nan nan nan nan nan nan nan nan nan
249 nan nan nan nan nan nan nan nan nan nan nan nan nan nan nan nan nan 261 263 262 262 nan nan nan 259 263 270 277 280 nan nan nan nan nan nan nan nan nan nan nan nan nan nan nan nan nan nan nan nan nan nan nan nan nan nan nan nan nan nan nan nan nan nan nan nan nan nan nan nan nan nan nan nan nan nan nan nan nan nan nan nan nan nan nan
nan nan nan nan nan nan nan nan nan nan nan nan nan nan nan nan nan nan nan nan nan nan nan nan nan nan nan nan nan nan nan nan nan nan nan nan nan nan nan nan nan nan nan nan nan nan nan nan nan nan nan nan nan nan nan nan nan nan nan nan nan nan nan nan nan nan nan nan nan nan nan nan nan nan nan nan nan nan nan nan nan nan nan nan nan
nan nan nan nan nan nan nan nan nan nan nan nan nan nan nan nan nan nan nan nan nan nan nan nan nan nan nan nan nan nan nan nan nan nan nan nan nan nan nan nan nan nan nan nan nan nan nan nan nan nan nan nan nan nan nan nan nan nan nan nan nan nan nan nan nan nan nan nan nan nan nan nan nan nan nan nan nan nan nan nan nan nan nan nan nan
nan nan nan nan nan nan nan nan nan nan nan nan nan nan nan nan nan nan nan nan nan nan nan nan nan nan nan nan nan nan nan nan nan nan nan nan nan nan nan nan nan nan nan nan nan nan nan nan nan nan nan nan nan nan nan nan nan nan nan nan nan nan nan nan nan nan nan nan nan nan nan nan nan nan nan nan nan nan nan nan nan nan nan nan nan
nan nan nan nan nan nan nan nan nan nan nan nan nan nan nan nan nan nan nan nan nan nan nan nan nan nan nan nan nan nan nan nan nan nan nan nan nan nan nan nan nan nan nan nan nan nan nan nan nan nan nan nan nan nan nan nan nan nan nan nan nan nan nan nan nan nan nan nan nan nan nan nan nan nan nan nan nan nan nan nan nan nan nan nan nan
nan nan nan nan nan nan nan nan nan nan nan nan nan nan nan nan nan nan nan nan nan nan nan nan nan nan nan nan nan nan nan nan nan nan nan nan nan nan nan nan nan nan nan nan nan nan nan nan nan nan nan nan nan nan nan nan nan nan nan nan nan nan nan nan nan nan nan nan nan nan nan nan nan nan nan nan nan nan nan nan nan nan nan nan nan
nan nan nan nan nan nan nan nan nan nan nan nan nan nan nan nan nan nan nan nan nan nan nan nan nan nan nan nan nan nan nan nan nan nan nan nan nan nan nan nan nan nan nan nan nan nan nan nan nan nan nan nan nan nan nan nan nan nan nan nan nan nan nan nan nan nan nan nan nan nan nan nan nan nan nan nan nan nan nan nan nan nan nan nan nan
nan nan nan nan nan nan nan nan nan nan nan nan nan nan nan nan nan nan nan nan nan nan nan nan nan nan nan nan nan nan nan nan nan nan nan nan nan nan nan nan nan nan nan nan nan nan nan nan nan nan nan nan nan nan nan nan nan nan nan nan nan nan nan nan nan nan nan nan nan nan nan nan nan nan nan nan nan nan nan nan nan nan nan nan nan